Regional Weather Roundup
Issued by NWS

Home | Current Version | Previous Version | Graphics & Text | Print | Product List | Glossary On
Versions: 1 2 3 4 5 6 7 8 9 10 11 12 13 14 15 16 17 18 19 20 21 22 23 24 25 26 27 28 29 30 31 32 33 34 35 36 37 38 39 40 41 42 43 44 45 46 47 48 49 50
000
ASUS43 KDMX 230101
RWRIA

WEATHER ROUNDUP FOR IOWA
NATIONAL WEATHER SERVICE DES MOINES IA
800 PM CDT TUE MAY 22 2018

NOTE: "FAIR" INDICATES FEW OR NO CLOUDS BELOW 12,000 FEET WITH NO
SIGNIFICANT WEATHER AND/OR OBSTRUCTIONS TO VISIBILITY.

* - THESE STATIONS ARE NOT NWS STATIONS...THUS NOT UNDER NWS
QUALITY CONTROL.  THEY ALSO DO NOT REPORT WEATHER SUCH
AS PRECIPITATION OR FOG.

IAZ001>003-012>014-020>022-031>034-043>046-230200-
   NORTHWEST IOWA

CITY           SKY/WX    TMP DP  RH WIND       PRES   REMARKS
CARROLL *        N/A    N/A N/A N/A SE13      29.98S
CHEROKEE *     MOCLDY    75  64  69 SE6       29.96S
DENISON *      PTCLDY    73  64  73 SE10      29.97F
LE MARS *      CLOUDY    77  64  65 SE8       29.93S
ORANGE CITY *  CLOUDY    77  63  61 SE6       29.95F
SHELDON *      CLOUDY    75  64  69 SE9       29.95S
SIOUX CITY     PTCLDY    75  66  73 SE12      29.91F
SPENCER        CLOUDY    76  63  64 S7        29.97S
STORM LAKE *   CLOUDY    75  61  60 SE10      29.98S
$$

IAZ055>058-069>071-079>083-090>094-230200-
   SOUTHWEST IOWA

CITY           SKY/WX    TMP DP  RH WIND       PRES   REMARKS
ATLANTIC *     CLEAR     77  68  73 SE7       29.96S
AUDUBON *      PTCLDY    73  66  78 SE8       29.99S
CLARINDA *     CLEAR     81  63  54 SE6       29.98R HX  82
COUNCIL BLFS * CLEAR     79  68  69 SE10      29.93S HX  81
CRESTON *      CLEAR     77  66  69 SE12      30.01S
HARLAN  *      PTCLDY    75  68  78 E9        29.99S
LAMONI         CLEAR     77  63  61 SE3       30.00R
RED OAK *      CLEAR     81  64  57 SE7       29.95S HX  82
SHENANDOAH *   CLEAR     82  63  51 S12       29.95R HX  83
$$

IAZ047>049-059>061-072>074-084-230200-
   CENTRAL IOWA

CITY           SKY/WX    TMP DP  RH WIND       PRES   REMARKS
AMES           CLOUDY    73  64  73 SE5       30.00R
ANKENY *       PTCLDY    73  64  73 CALM      30.01S
BOONE *        CLOUDY    75  63  64 SE10      30.00R
CHARITON *     CLEAR     75  64  69 E5        30.01R
DES MOINES     MOCLDY    76  64  66 SE7       29.99S
GRINNELL*      CLOUDY    74  63  68 E3        30.03S
KNOXVILLE *    PTCLDY    75  63  64 CALM      30.00R
MARSHALLTOWN   CLOUDY    74  65  73 SE5       30.00S
NEWTON *       CLOUDY    73  64  73 S5        30.01S
PELLA *        PTCLDY    75  64  67 CALM      30.02R HAZE
PERRY *        FAIR      75  61  62 SE8       30.00S
$$

IAZ004>006-015-016-023>025-035-036-230200-
   NORTH CENTRAL IOWA

CITY           SKY/WX    TMP DP  RH WIND       PRES   REMARKS
ALGONA *       CLOUDY    77  63  61 SE6       30.00R
CLARION *      CLOUDY    77  61  57 SE9       30.00R
ESTHERVILLE    CLOUDY    75  61  61 S8        29.98S
FORT DODGE *   MOCLDY    75  64  68 S5        30.00R
MASON CITY     CLOUDY    75  60  59 S8        30.02R
FOREST CITY *  CLOUDY    75  61  60 SE3       30.01R
WEBSTER CITY * PTCLDY    75  63  64 S9        29.98R
IOWA FALLS *   FAIR      75  64  67 SE6       30.02S
$$

IAZ007>011-017>019-026>030-037>042-050>054-066-230200-
   NORTHEAST IOWA

CITY           SKY/WX    TMP DP  RH WIND       PRES   REMARKS
CEDAR RAPIDS   FAIR      73  61  65 E3        30.02R
CHARLES CITY * FAIR      73  61  64 SE7       30.03R
CLINTON *        N/A    N/A N/A N/A NE6       30.05
DECORAH *      FAIR      70  61  73 E6        30.04S
DUBUQUE        FAIR      68  58  70 NE3       30.06R
MONTICELLO *   FAIR      72  61  68 CALM      30.04S
OELWEIN *      FAIR      72  61  68 E6        30.04S
WATERLOO       FAIR      71  61  70 E8        30.01S
$$

IAZ064-065-067-068-078-230200-
   EAST CENTRAL IOWA

CITY           SKY/WX    TMP DP  RH WIND       PRES   REMARKS
DAVENPORT      FAIR      70  60  70 NE6       30.05S
IOWA CITY      FAIR      75  60  59 NE5       30.03S
MUSCATINE *    FAIR      73  61  64 NE5       30.03R
QUAD CITIES    FAIR      73  60  63 NE6       30.03R
$$

IAZ062-063-075>077-085>089-095>099-230200-
   SOUTHEAST IOWA

CITY           SKY/WX    TMP DP  RH WIND       PRES   REMARKS
BURLINGTON     CLEAR     73  61  65 NE5       30.02R
FAIRFIELD *    PTCLDY    75  63  64 E7        30.01S
FORT MADISON * CLEAR     75  63  64 E3        30.03S
KEOKUK *       PTCLDY    77  64  65 E3        30.01S
OSKALOOSA *    FAIR      77  64  63 CALM      30.02R
CENTERVILLE *    N/A     75  66  73 CALM      30.03R
OTTUMWA        PTCLDY    75  63  66 SE5       30.01R
WASHINGTON *   CLOUDY    75  63  64 E7        30.03S
$$

ABBREVIATIONS USED IN REMARKS
   TC - TEMPERATURES IN CELSIUS
  WCI - WIND CHILL INDEX
   HX - HEAT INDEX
  VSB - VISIBILITY
$$





USA.gov is the U.S. government's official web portal to all federal, state and local government web resources and services.